Wind_Speed
21 20 21 21 21 21 20 19 20 20 19 19 19 19 19 19 18 17 16 16 16 16 16 17 17 17 17 17 17 16 16 16 16 15 15 15 16 16 15 15 15 15 14 14 14 13 14 14 13
21 21 22 22 22 22 20 20 21 21 21 21 21 21 20 20 20 19 18 18 19 19 18 19 19 19 19 19 19 19 18 18 18 18 17 17 18 18 17 17 17 17 16 16 16 15 15 15 15
21 21 23 23 23 21 21 21 22 22 22 22 22 22 21 21 21 21 20 20 21 20 20 21 21 21 21 21 21 21 21 20 20 20 20 19 20 20 19 19 19 19 18 18 18 17 17 17 17
22 22 23 24 24 22 22 23 24 24 24 23 23 24 23 23 23 23 22 22 22 22 22 22 23 23 23 23 23 23 23 22 22 22 22 22 22 21 21 21 21 21 21 20 20 20 19 19 20
23 24 24 24 24 23 23 24 25 25 25 24 25 25 24 24 25 24 24 24 24 24 24 24 24 24 25 25 24 25 25 24 24 24 24 24 24 23 22 22 23 22 22 22 22 22 21 21 21
24 24 25 24 24 24 24 25 26 26 26 26 27 27 26 26 26 26 25 26 26 26 26 26 26 26 26 26 26 26 26 27 27 26 26 26 26 25 25 25 25 24 24 24 24 23 23 24 24
25 25 25 24 25 25 25 26 27 28 28 28 28 29 28 28 28 28 28 28 28 28 28 28 28 28 28 28 28 28 28 28 28 29 28 28 29 28 27 27 27 27 26 26 26 26 26 26 26
26 26 25 25 25 25 26 27 29 30 30 30 30 30 30 30 29 29 29 30 30 30 30 30 30 30 31 30 30 30 30 30 30 31 31 31 30 30 29 29 29 29 29 29 29 28 28 28 27
26 27 26 25 26 26 27 28 29 31 32 32 31 32 32 32 32 32 32 32 32 33 32 32 33 32 33 33 33 32 32 32 32 32 33 33 32 32 32 32 32 32 32 31 32 31 31 30 30
28 28 26 27 27 28 29 30 30 31 32 33 33 33 33 33 33 34 33 34 34 34 34 34 34 34 34 35 34 34 34 35 35 35 35 35 35 34 34 34 34 34 34 34 34 33 33 33 32
28 28 28 28 29 30 30 31 31 32 33 33 34 34 35 35 36 36 36 36 36 36 36 36 36 36 36 36 36 36 36 36 37 37 37 38 37 37 36 37 37 36 36 36 35 35 35 34 34
29 29 30 30 30 31 31 32 32 32 33 34 35 35 36 37 37 37 36 37 37 37 37 37 37 37 38 38 38 38 38 37 38 38 38 38 39 38 38 38 38 38 38 38 37 37 36 36 37
29 29 30 31 31 32 33 33 33 33 34 36 36 36 37 37 37 38 37 37 37 37 37 38 38 38 38 39 39 40 40 40 40 41 40 40 40 40 40 39 39 40 40 39 39 39 39 38 37
28 29 30 31 31 33 34 34 34 34 35 36 37 38 38 38 38 38 38 38 38 38 38 38 38 39 39 40 40 40 40 41 41 41 41 41 41 41 41 41 40 40 40 41 41 40 41 41 40
29 30 30 31 32 33 34 35 35 35 36 37 37 38 39 39 39 38 38 38 38 39 39 39 39 39 40 40 41 41 42 42 42 41 42 42 42 42 42 42 42 41 41 42 42 42 42 42 42
29 30 31 31 33 34 35 35 35 36 36 37 38 38 38 39 39 39 38 38 38 39 39 39 39 39 39 40 41 41 42 43 43 43 43 44 44 43 43 44 44 43 43 44 44 43 43 43 43
29 30 31 32 33 34 34 34 34 35 35 36 37 38 38 38 38 39 38 38 38 38 39 39 40 40 40 40 41 41 42 43 44 44 43 44 44 44 44 44 44 44 45 45 46 46 45 45 45
29 30 31 32 33 33 33 33 33 33 34 35 36 37 37 37 36 37 37 37 37 37 38 39 40 40 40 40 40 40 42 43 43 43 44 44 44 45 45 45 45 45 45 45 46 46 46 46 46
28 29 30 31 32 32 32 32 32 32 33 34 35 35 35 35 35 36 36 36 36 36 37 37 38 39 39 39 40 40 40 41 43 43 44 44 44 45 45 46 46 46 46 46 47 47 47 47 47
27 28 29 29 30 31 30 30 31 31 31 33 33 34 34 33 34 35 35 36 36 36 36 36 37 38 39 39 40 41 41 42 42 43 44 45 45 45 46 46 47 47 46 47 47 47 47 47 47
27 28 28 28 28 29 30 29 29 30 30 31 32 33 34 34 34 34 35 35 35 36 36 37 38 38 39 39 40 40 41 42 43 43 45 46 47 47 46 46 46 46 46 46 46 46 46 46 46
26 27 28 28 28 28 29 29 28 29 29 29 30 31 33 33 33 33 34 34 35 35 36 37 38 39 39 40 41 41 42 42 43 43 44 45 46 46 46 45 45 45 44 44 45 45 45 45 45
26 27 27 27 27 27 27 29 27 28 28 28 28 29 30 31 32 32 33 34 34 35 36 37 38 39 39 40 41 42 43 43 44 44 44 44 44 44 44 44 44 44 44 44 44 44 45 44 44
25 26 26 26 26 26 25 27 27 27 28 28 27 27 28 29 31 33 33 34 34 35 36 37 38 39 40 41 42 42 43 43 43 43 43 42 43 43 43 42 42 43 44 44 44 44 44 44 44
24 25 25 25 24 24 24 26 25 26 26 26 26 27 28 29 30 32 33 34 35 35 36 37 38 39 40 41 42 43 43 43 43 43 43 43 43 42 42 41 42 43 43 44 43 43 44 43 43
24 23 24 25 25 25 24 24 23 24 25 26 26 27 28 30 31 32 33 33 34 34 35 36 37 38 39 40 42 43 43 43 43 43 43 43 43 42 42 42 42 42 42 43 43 42 42 42 42
23 23 23 25 26 26 25 25 23 23 24 25 26 27 28 30 32 33 33 34 35 35 36 36 37 38 39 40 41 41 42 42 42 42 43 43 42 41 40 41 40 40 41 41 42 42 42 42 41
22 22 23 24 26 27 26 25 24 24 25 26 26 28 29 30 31 32 33 34 35 35 36 37 37 38 39 40 40 40 41 41 41 42 41 41 40 40 39 39 38 39 39 40 40 41 41 41 41
22 23 23 24 25 26 27 26 25 26 26 27 28 29 29 31 32 33 34 34 35 35 36 37 37 38 39 39 39 39 39 40 40 40 40 40 40 40 39 39 39 39 38 39 40 41 41 41 41
23 23 24 25 25 26 27 26 24 26 27 28 29 30 31 32 32 33 34 34 35 35 35 35 36 37 37 36 37 37 37 37 37 37 37 38 39 39 38 38 38 38 39 39 40 40 40 41 41
Wind_Direction
242 245 245 246 246 246 245 246 247 249 250 253 255 255 254 255 256 259 259 259 258 256 256 257 257 256 254 256 257 258 257 256 256 255 255 256 256 256 257 258 260 261 261 262 262 264 261 261 262
244 245 246 247 247 246 245 245 248 250 252 254 255 256 255 255 257 258 259 260 259 259 257 257 258 257 255 256 257 258 257 256 255 255 255 256 257 257 256 258 260 260 261 262 263 263 260 260 262
247 247 248 249 248 248 246 247 248 249 251 252 254 255 256 256 257 258 259 260 261 260 258 258 259 259 258 257 256 257 258 257 256 256 256 256 257 257 258 258 259 259 259 260 261 261 261 260 261
250 250 251 252 251 249 248 249 250 250 251 252 253 254 256 257 259 259 259 260 261 261 260 259 259 259 260 260 257 257 257 258 257 257 257 257 257 257 257 258 259 258 259 261 261 261 262 263 261
253 252 253 253 253 250 250 250 251 251 253 254 255 256 257 258 260 261 260 260 261 261 261 261 260 260 260 260 259 257 258 258 258 258 258 258 257 256 256 257 259 259 260 261 262 263 263 263 264
255 256 255 255 254 253 251 252 253 252 254 254 256 258 259 259 261 261 262 261 261 261 261 261 261 260 259 260 260 258 257 257 258 258 258 258 258 257 258 258 259 259 260 261 263 263 264 265 265
256 257 258 257 256 255 254 253 255 255 255 256 257 258 260 260 260 261 262 263 263 262 261 262 262 261 261 261 260 258 258 258 258 258 258 258 258 258 258 258 259 260 260 261 262 263 263 264 265
257 258 258 259 259 258 257 256 256 257 258 258 259 259 259 259 260 261 262 262 263 262 261 261 261 261 261 261 261 260 260 259 259 259 259 259 258 258 259 259 260 260 261 261 262 262 262 263 263
257 258 259 260 260 259 258 258 258 259 260 260 260 260 260 260 260 261 261 262 262 262 261 261 261 261 261 262 262 262 261 260 260 260 260 260 259 259 259 260 261 261 261 262 262 262 262 262 262
258 260 261 261 261 260 260 260 260 261 261 262 262 261 262 261 261 261 261 262 263 262 261 261 261 261 261 262 262 262 261 261 261 261 261 261 260 260 260 261 261 262 262 262 262 262 262 262 263
261 262 262 261 261 261 261 261 262 263 263 264 263 263 263 262 262 262 262 262 261 262 262 262 261 261 262 262 261 261 261 261 262 262 262 261 260 260 260 260 260 261 261 262 262 261 262 262 263
263 263 262 262 263 263 263 263 263 264 265 265 264 264 264 263 263 262 262 261 261 261 262 262 262 262 262 262 261 261 261 261 261 261 262 261 260 260 260 260 260 261 261 261 260 260 261 261 261
264 265 264 264 264 264 263 263 263 264 265 265 265 265 264 264 264 263 263 262 261 262 262 262 262 262 262 262 261 261 261 261 261 261 261 260 260 260 260 261 261 261 261 261 261 260 260 261 261
267 266 266 266 266 266 266 265 265 265 266 266 266 266 265 265 264 264 264 264 263 263 262 262 261 261 261 262 261 261 261 261 261 260 260 261 260 260 259 260 261 261 261 261 261 260 260 260 261
268 268 268 268 268 269 268 267 267 266 267 266 266 265 264 264 265 264 264 264 264 263 262 262 261 261 261 261 262 262 261 261 261 260 260 260 259 259 259 259 259 260 261 260 260 260 259 260 260
270 270 270 270 271 270 269 269 268 267 267 267 266 266 264 264 264 263 263 263 263 263 262 262 262 262 262 262 263 263 262 261 262 261 260 261 260 260 260 259 259 260 260 260 260 260 260 259 259
273 273 273 272 272 272 271 270 269 268 268 268 267 266 265 264 263 262 262 262 262 262 263 262 262 262 263 263 264 263 262 262 262 262 261 262 262 261 260 260 260 260 260 259 259 259 260 259 259
277 278 277 275 274 272 271 271 269 268 269 268 268 267 266 264 262 261 261 261 261 262 263 263 263 263 263 263 263 263 262 262 262 263 263 262 262 262 261 261 261 260 260 259 259 259 260 260 260
281 280 279 277 275 273 271 269 268 268 268 269 268 267 265 263 261 261 261 261 261 261 262 263 263 263 263 262 262 263 263 263 263 264 264 263 263 263 262 262 261 261 261 261 260 260 260 260 260
282 282 282 279 277 275 272 270 270 268 268 267 267 265 262 262 260 260 261 262 262 262 262 262 263 263 263 263 263 264 264 264 264 264 265 265 264 263 263 263 262 262 262 262 261 260 260 260 260
284 284 284 281 279 276 274 272 271 270 269 267 266 264 262 261 259 259 261 262 262 263 264 265 265 264 264 264 265 265 265 264 265 265 265 266 265 264 263 263 263 262 261 261 260 260 259 259 259
285 285 284 282 280 279 277 275 271 271 270 268 266 266 263 262 260 259 261 262 264 264 265 266 267 267 267 267 266 266 266 266 265 265 266 267 267 265 264 262 261 261 261 261 260 259 259 258 258
287 286 286 284 281 281 280 277 273 273 272 271 268 268 266 262 262 262 262 264 265 266 267 267 267 268 268 268 268 268 268 268 268 266 265 266 266 266 265 263 262 261 261 261 260 260 259 258 258
288 288 287 285 283 282 280 278 278 275 274 274 272 270 268 265 264 263 263 265 266 267 269 269 268 268 269 269 269 269 269 269 269 268 267 266 265 266 265 263 262 262 262 262 261 260 260 259 258
287 288 289 288 286 284 283 281 281 278 276 275 273 270 268 266 266 265 265 267 268 269 270 270 270 270 271 271 271 271 271 270 270 268 267 267 267 266 264 263 263 263 262 261 260 260 260 259 259
287 286 286 287 287 287 285 284 283 282 279 277 275 273 270 269 268 268 267 268 269 270 272 272 272 272 272 272 272 272 271 271 270 268 268 268 267 266 264 263 264 263 262 261 259 259 259 259 259
287 284 285 285 286 286 286 284 283 284 282 280 277 274 273 273 271 270 270 271 271 272 273 274 275 275 275 274 273 272 271 270 269 268 268 268 267 265 264 264 264 263 262 260 259 258 258 259 259
286 286 285 284 286 286 286 287 288 286 284 281 280 278 276 276 274 272 273 274 275 275 275 276 276 276 276 275 274 273 272 270 269 269 268 267 265 264 264 263 263 263 262 261 260 259 258 258 259
286 286 284 284 284 285 287 289 290 288 287 284 283 281 279 279 276 275 276 276 277 277 277 278 277 277 277 276 275 274 273 271 271 270 269 268 266 265 264 264 262 261 261 261 259 259 258 258 258
284 284 283 283 285 285 286 290 290 289 288 286 285 284 283 283 279 278 278 277 277 277 278 279 279 278 278 277 276 275 273 273 273 271 270 268 266 265 265 264 262 261 260 260 259 259 258 258 258
Height
5824 5826 5827 5829 5830 5831 5832 5834 5834 5834 5835 5836 5836 5837 5837 5838 5840 5842 5841 5840 5840 5840 5841 5841 5841 5841 5841 5841 5842 5842 5842 5842 5843 5843 5844 5844 5845 5845 5846 5846 5846 5846 5846 5846 5846 5847 5847 5847 5848
5820 5822 5824 5825 5826 5827 5829 5830 5830 5830 5831 5832 5832 5833 5833 5834 5835 5836 5836 5836 5836 5837 5837 5837 5837 5838 5838 5838 5838 5838 5839 5839 5839 5840 5840 5841 5841 5842 5842 5843 5843 5843 5843 5844 5844 5844 5844 5845 5845
5816 5818 5820 5820 5821 5824 5825 5825 5826 5826 5827 5828 5828 5828 5829 5830 5830 5831 5832 5832 5832 5833 5833 5833 5833 5834 5834 5834 5835 5835 5835 5836 5836 5836 5837 5838 5838 5838 5839 5839 5840 5840 5841 5841 5841 5841 5842 5842 5842
5812 5813 5815 5816 5817 5820 5820 5820 5820 5821 5822 5823 5824 5824 5825 5826 5826 5827 5827 5827 5828 5828 5828 5829 5829 5829 5830 5830 5830 5831 5831 5832 5832 5833 5833 5834 5834 5835 5835 5836 5836 5836 5837 5837 5838 5838 5838 5839 5839
5807 5808 5809 5810 5812 5814 5815 5815 5815 5816 5817 5818 5819 5819 5820 5821 5821 5821 5822 5822 5822 5823 5823 5824 5824 5824 5825 5825 5826 5826 5827 5827 5827 5828 5829 5829 5830 5830 5831 5831 5831 5832 5833 5833 5833 5834 5834 5835 5835
5803 5803 5805 5806 5808 5809 5809 5810 5810 5811 5811 5812 5813 5814 5815 5815 5816 5816 5816 5817 5817 5817 5818 5818 5818 5819 5819 5820 5821 5821 5822 5822 5823 5823 5823 5824 5825 5825 5826 5826 5827 5827 5828 5829 5829 5830 5830 5830 5831
5798 5798 5799 5801 5802 5803 5804 5804 5804 5805 5805 5806 5807 5808 5809 5809 5810 5810 5810 5811 5811 5811 5812 5812 5812 5813 5813 5814 5815 5815 5816 5816 5817 5817 5818 5819 5819 5820 5821 5821 5822 5822 5823 5823 5824 5824 5825 5825 5825
5792 5793 5794 5795 5796 5798 5798 5798 5798 5798 5799 5800 5800 5801 5802 5803 5803 5803 5804 5804 5804 5805 5805 5806 5806 5807 5807 5808 5808 5809 5809 5810 5811 5811 5812 5813 5813 5814 5815 5815 5816 5816 5817 5817 5818 5819 5819 5820 5820
5786 5788 5788 5790 5790 5791 5791 5792 5791 5791 5792 5792 5793 5794 5795 5795 5795 5796 5796 5796 5797 5797 5798 5798 5799 5799 5800 5801 5801 5802 5802 5803 5804 5804 5805 5806 5807 5807 5808 5809 5809 5810 5810 5811 5812 5813 5813 5814 5814
5780 5781 5783 5784 5784 5784 5784 5784 5784 5785 5785 5785 5785 5786 5786 5787 5787 5788 5788 5788 5788 5789 5789 5790 5791 5792 5792 5793 5794 5794 5795 5796 5796 5797 5798 5799 5799 5800 5801 5802 5802 5803 5803 5804 5805 5806 5806 5807 5808
5773 5774 5776 5776 5776 5776 5776 5777 5777 5777 5777 5777 5777 5777 5778 5778 5779 5779 5779 5780 5780 5780 5781 5781 5782 5783 5784 5785 5786 5786 5787 5788 5788 5789 5790 5790 5791 5792 5793 5794 5794 5795 5796 5797 5797 5798 5799 5800 5800
5766 5767 5767 5768 5768 5768 5768 5769 5769 5769 5770 5769 5768 5768 5769 5770 5770 5770 5770 5770 5771 5771 5772 5772 5773 5774 5775 5776 5777 5778 5778 5778 5779 5780 5781 5781 5782 5783 5784 5785 5786 5787 5787 5788 5789 5790 5791 5792 5793
5759 5760 5760 5760 5760 5760 5760 5760 5760 5761 5761 5760 5759 5759 5759 5760 5760 5760 5761 5761 5761 5762 5762 5763 5764 5764 5765 5766 5767 5768 5768 5769 5770 5770 5771 5772 5773 5774 5775 5776 5777 5778 5778 5779 5781 5782 5783 5783 5784
5752 5752 5752 5752 5752 5752 5751 5752 5752 5752 5751 5750 5750 5750 5750 5750 5751 5751 5751 5751 5752 5752 5753 5753 5754 5755 5755 5756 5757 5757 5758 5759 5760 5760 5761 5762 5763 5764 5765 5766 5767 5768 5769 5770 5771 5772 5773 5774 5775
5744 5744 5744 5744 5743 5743 5742 5743 5743 5743 5741 5741 5740 5740 5740 5740 5741 5741 5741 5742 5742 5742 5743 5743 5744 5745 5745 5746 5746 5747 5748 5748 5749 5750 5751 5751 5752 5753 5754 5755 5756 5758 5759 5759 5760 5762 5763 5764 5765
5736 5736 5736 5736 5735 5734 5734 5734 5734 5732 5731 5731 5730 5730 5730 5730 5730 5731 5731 5732 5732 5732 5733 5733 5734 5734 5735 5736 5736 5736 5737 5738 5738 5739 5740 5741 5741 5743 5744 5744 5745 5746 5747 5749 5750 5751 5752 5753 5755
5727 5727 5727 5727 5726 5725 5724 5724 5724 5722 5721 5721 5720 5720 5720 5720 5720 5720 5721 5722 5722 5722 5723 5723 5724 5724 5725 5725 5726 5726 5726 5727 5727 5728 5729 5729 5730 5731 5732 5733 5734 5735 5735 5736 5738 5739 5740 5742 5743
5720 5719 5718 5718 5716 5715 5714 5714 5713 5712 5711 5710 5710 5709 5709 5710 5710 5710 5711 5711 5712 5712 5713 5713 5714 5714 5715 5715 5715 5715 5716 5716 5717 5717 5718 5718 5718 5719 5720 5722 5722 5722 5723 5724 5725 5727 5728 5730 5731
5711 5711 5710 5709 5707 5706 5705 5704 5703 5703 5702 5701 5700 5699 5699 5700 5700 5701 5701 5702 5702 5703 5703 5703 5704 5704 5704 5705 5705 5705 5705 5706 5706 5706 5706 5707 5707 5708 5708 5709 5710 5711 5711 5712 5713 5714 5716 5718 5719
5703 5702 5701 5700 5698 5696 5696 5695 5694 5693 5692 5692 5691 5690 5690 5690 5690 5691 5692 5692 5693 5693 5693 5694 5694 5694 5694 5694 5695 5695 5694 5694 5695 5695 5695 5695 5695 5696 5696 5697 5698 5699 5700 5700 5701 5702 5704 5705 5707
5695 5694 5692 5691 5689 5688 5686 5686 5685 5683 5683 5682 5681 5681 5680 5681 5681 5682 5683 5683 5683 5684 5684 5684 5684 5684 5684 5684 5684 5684 5684 5684 5683 5684 5684 5683 5683 5683 5684 5684 5685 5687 5687 5688 5689 5691 5692 5694 5695
5688 5687 5685 5683 5681 5679 5678 5676 5677 5675 5674 5673 5673 5672 5672 5672 5672 5673 5674 5674 5674 5675 5675 5674 5674 5674 5674 5673 5673 5673 5673 5673 5672 5672 5672 5671 5671 5671 5671 5672 5673 5674 5675 5677 5678 5679 5681 5682 5683
5681 5679 5677 5675 5673 5672 5670 5668 5669 5667 5666 5665 5665 5664 5664 5664 5664 5665 5665 5665 5665 5665 5664 5664 5664 5663 5663 5662 5662 5662 5661 5661 5660 5660 5660 5660 5659 5659 5660 5660 5661 5663 5664 5665 5667 5668 5669 5671 5672
5674 5672 5670 5668 5666 5665 5663 5661 5661 5660 5659 5658 5657 5656 5656 5656 5656 5656 5656 5656 5655 5655 5654 5654 5653 5653 5652 5651 5651 5650 5650 5650 5649 5649 5649 5649 5649 5649 5649 5649 5650 5651 5653 5654 5655 5656 5658 5660 5661
5667 5666 5663 5660 5658 5658 5656 5654 5654 5653 5651 5650 5649 5648 5647 5647 5647 5646 5646 5646 5646 5645 5644 5643 5643 5642 5641 5640 5640 5639 5639 5638 5638 5637 5637 5637 5637 5638 5638 5639 5640 5640 5642 5643 5644 5645 5647 5648 5650
5660 5659 5657 5654 5652 5651 5649 5648 5649 5646 5644 5643 5642 5641 5640 5639 5638 5637 5637 5637 5636 5635 5635 5633 5632 5632 5631 5630 5629 5628 5627 5627 5626 5626 5626 5626 5626 5626 5627 5627 5628 5629 5630 5631 5633 5634 5636 5637 5639
5654 5652 5651 5649 5646 5644 5643 5642 5642 5639 5637 5636 5634 5633 5632 5631 5629 5629 5628 5628 5627 5626 5625 5624 5623 5622 5620 5619 5618 5616 5616 5615 5615 5615 5614 5614 5615 5615 5616 5616 5617 5618 5619 5620 5621 5623 5625 5626 5628
5648 5646 5645 5642 5639 5637 5637 5635 5635 5633 5631 5629 5627 5626 5624 5623 5621 5620 5619 5618 5617 5616 5615 5614 5613 5611 5610 5608 5606 5605 5605 5604 5603 5603 5603 5603 5603 5604 5605 5605 5606 5607 5608 5609 5610 5612 5613 5615 5617
5642 5640 5638 5635 5633 5631 5630 5632 5629 5627 5624 5622 5620 5618 5616 5615 5613 5612 5610 5609 5608 5606 5605 5604 5602 5600 5599 5597 5596 5595 5594 5593 5592 5592 5591 5591 5592 5593 5594 5594 5595 5596 5597 5598 5600 5601 5603 5605 5606
5635 5633 5632 5630 5628 5625 5623 5627 5622 5619 5616 5614 5612 5610 5608 5606 5604 5602 5601 5600 5598 5596 5595 5593 5591 5590 5588 5587 5585 5584 5583 5582 5582 5581 5580 5580 5581 5581 5582 5583 5584 5585 5587 5588 5589 5590 5592 5594 5596